Home   Weather   Curitiba   Past weeks

Flag for Brazil Past Weather in Curitiba, Paraná, Brazil — Yesterday and Last 2 Weeks

Now
73 °F

Partly sunny.


Feels Like: 75 °F
Forecast: 62 / 79 °F
Wind: 2 mph from Northeast

Location: Curitiba Aeroporto

Current Time: Feb 27, 2017 at 10:33:24 am

Latest Report: Feb 27, 2017 at 10:00 am


Visibility: N/A

Pressure: 30.07 "Hg (27.06 "Hg at 915m altitude)

Humidity: 74%

Dew Point: 64 °F

Location of CuritibaLocation

Past Weather in Curitiba — Graph

°F

Curitiba Temperature Yesterday

Maximum temperature yesterday: 81 °F (at 3:00 pm)
Minimum temperature yesterday: 46 °F (at 5:00 am)
Average temperature yesterday: 68 °F

High & Low Weather Summary for the Past Weeks

 TemperatureHumidityPressure
High90 °F (Feb 19, 4:00 pm)100% (Feb 12, 8:00 pm)30.27 "Hg (Feb 12, 8:00 pm)
Low46 °F (Feb 26, 5:00 am)31% (Feb 19, 3:00 pm)29.89 "Hg (Feb 12, 4:00 pm)
Average72 °F80%30.09 "Hg
* Reported Feb 12 10:00 am — Feb 27 9:00 am, Curitiba, Weather by CustomWeather, © 2017

Note: Actual official high and low records may vary slightly from our data, if they occured in-between our weather recording intervals... More about our weather records

Advertising

Curitiba Weather History for the Previous 24 Hours

Scroll right to see more
 ConditionsComfort  
Time TempWeatherWind HumidityBarometerVisibility
9:00 am
Mon, Feb 27
70 °FFog.3 mph83%30.04 "Hg3 mi
8:00 am66 °FFog.No wind94%30.04 "Hg2 mi
6:40 am63 °FMild.3 mph100%30.04 "Hg1 mi
6:00 am61 °FFog.2 mph100%30.04 "Hg1 mi
5:50 am61 °FCool.2 mph100%30.01 "Hg4 mi
5:00 am63 °FPartly cloudy.3 mph100%30.01 "Hg4 mi
4:00 am63 °FPassing clouds.1 mph100%30.01 "HgN/A
3:00 am64 °FPassing clouds.2 mph94%30.01 "HgN/A
2:00 am64 °FPassing clouds.3 mph100%30.04 "HgN/A
1:00 am66 °FPassing clouds.1 mph94%30.07 "HgN/A
12:00 am66 °FPassing clouds.2 mph94%30.07 "HgN/A
11:00 pm
Sun, Feb 26
66 °FPassing clouds.8 mph94%30.07 "HgN/A
10:00 pm68 °FPassing clouds.7 mph88%30.07 "HgN/A
9:00 pm68 °FPartly cloudy.7 mph94%30.07 "HgN/A
8:00 pm68 °FPartly cloudy.9 mph88%30.04 "HgN/A
7:25 pm70 °FPassing clouds.7 mph88%30.04 "HgN/A
7:00 pm70 °FPartly cloudy.8 mph88%30.01 "HgN/A
6:00 pm73 °FScattered showers. Partly sunny.9 mph78%N/AN/A
5:00 pm75 °FBroken clouds.3 mph74%N/AN/A
4:00 pm77 °FPartly sunny.6 mph65%29.98 "HgN/A
3:00 pm81 °FPartly sunny.5 mph54%30.01 "HgN/A
2:00 pm77 °FPartly sunny.6 mph65%30.04 "HgN/A
1:00 pm79 °FPartly sunny.7 mph54%30.04 "HgN/A
12:00 pm75 °FPartly sunny.5 mph61%30.07 "HgN/A
11:00 am77 °FPartly sunny.6 mph61%30.07 "HgN/A
10:00 am73 °FPartly sunny.3 mph78%30.04 "HgN/A
Weather by CustomWeather, © 2017

See weather overviewHow to use our weather pages